Location: Rimrock Meadows
(47.4808°N, 119.7286°W)
Time: 01:24:44
(UTC-07:00)

Daily predictions for brighter satellites

Satellite Brightness Start Highest point End
(mag) Time Altitude Azimuth Time Altitude Azimuth Time Altitude Azimuth
ATLAS 2AS CENTAUR R/B 4.3 01:42:05 33° ENE 01:42:05 33° ENE 01:46:19 10° NE
SL-16 R/B 4.0 02:23:44 31° NE 02:23:44 31° NE 02:28:35 10° N
NOSS 3-2 (C) 4.5 02:34:57 10° NW 02:42:04 53° NE 02:49:48 10° ESE
Cosmos 2344 4.2 02:57:25 46° ESE 02:57:25 46° ESE 03:05:33 10° NE
ARIANE 5 R/B 4.4 02:57:09 10° NNE 02:59:52 26° NE 02:59:52 26° NE
Cosmos 2333 Rocket 4.3 03:03:35 10° NNW 03:05:04 18° NNW 03:05:04 18° NNW
Lacrosse 5 rocket 3.9 03:21:05 22° NE 03:21:05 22° NE 03:22:44 10° NE
ATLAS 5 CENTAUR R/B 4.2 03:30:33 21° SE 03:30:33 21° SE 03:32:29 10° SE
Cosmos 2237 Rocket 4.0 03:23:10 10° NNW 03:25:04 22° NNW 03:25:04 22° NNW
ATLAS 2AS CENTAUR R/B 3.4 03:29:31 50° NW 03:29:45 50° NW 03:37:38 10° NE
CZ-2D R/B 2.5 03:43:12 10° NNE 03:47:32 58° NE 03:47:32 58° NE
Cosmos 2219 3.9 03:50:36 45° N 03:50:36 45° N 03:54:48 10° NNE
SL-16 R/B 3.3 03:44:26 10° NNW 03:49:53 43° NE 03:55:17 10° SE
Lacrosse 5 2.8 03:54:26 43° ESE 03:54:26 43° ESE 03:58:26 10° ENE
NOSS 3-2 (A) 4.5 03:46:33 10° NW 03:56:36 43° S 04:01:52 10° SSE
IRS-1D 4.0 03:54:57 10° NNE 03:59:16 58° N 03:59:16 58° N
Cosmos 1934 Rocket 4.2 03:56:20 10° NNW 04:01:22 55° NW 04:01:22 55° NW
Cosmos 2227 Rocket 2.5 04:03:30 58° SE 04:04:02 60° ESE 04:09:38 10° NNE
SL-16 R/B 3.4 04:08:50 36° NW 04:08:50 36° NW 04:12:40 10° NNW
Resurs 1-4 Rocket 2.2 04:01:42 10° NNE 04:06:22 67° N 04:06:22 67° N
Cosmos 1605 Rocket 3.8 04:03:32 10° N 04:09:42 84° W 04:10:31 69° S
Meteor 1-13 Rocket 4.4 04:10:36 53° SSE 04:11:55 70° E 04:17:35 10° NNE
Cosmos 2297 Rocket 2.8 04:11:35 41° SSE 04:13:02 52° ESE 04:18:31 10° NE
Cosmos 1606 Rocket 4.3 04:10:35 10° N 04:14:53 51° ENE 04:15:52 42° ESE
ERS-2 4.3 04:12:11 10° N 04:13:28 21° N 04:13:28 21° N
Cosmos 1346 Rocket 4.5 04:15:13 28° ESE 04:16:07 31° E 04:19:41 10° NNE
USA 215 4.1 04:12:37 10° SSE 04:16:19 32° S 04:16:19 32° S
RESURS DK-1 3.0 04:20:47 52° E 04:20:47 52° E 04:24:28 10° NE
Okean O Rocket 2.5 04:16:14 10° NNE 04:20:28 45° E 04:21:34 37° SE
CENTAUR R/B 3.4 04:16:25 10° NW 04:24:01 66° NE 04:32:15 10° SE
Cosmos 1726 Rocket 4.2 04:20:45 10° N 04:25:06 55° ENE 04:28:27 16° SSE
Cosmos 220 Rocket 4.2 04:26:04 67° ENE 04:26:04 67° ENE 04:29:57 10° NNE
PSLV R/B 4.3 04:27:10 10° NNE 04:31:16 62° E 04:31:44 57° SE
NOSS 3-2 (C) 4.1 04:26:01 10° NW 04:33:10 50° WSW 04:40:50 10° S
Cosmos 1777 Rocket 4.2 04:34:34 51° WNW 04:34:34 51° WNW 04:39:36 10° NNE
CZ-2D R/B 3.9 04:31:48 10° N 04:34:54 50° N 04:34:54 50° N
ARIANE 5 R/B 3.4 04:36:20 10° N 04:40:12 33° NW 04:40:12 33° NW
Cosmos 1892 Rocket 4.1 04:39:22 24° SSE 04:41:54 57° E 04:46:19 10° NNE
Meteor 2-8 Rocket 4.4 04:42:49 46° SW 04:44:20 59° WNW 04:50:24 10° N
Cosmos 2082 3.6 04:44:22 50° SW 04:45:50 74° WNW 04:51:29 10° NNE
ARGOS Delta rocket 4.5 04:41:33 10° N 04:45:49 41° WNW 04:45:49 41° WNW
Okean 1-7 Rocket 4.2 04:48:26 40° NW 04:48:26 40° NW 04:51:55 10° N
Cosmos 2228 3.7 04:45:19 10° N 04:49:40 55° ENE 04:53:57 10° SSE
Cosmos 2100 Rocket 4.0 04:43:27 10° N 04:49:44 88° E 04:56:02 10° S
PAYLOAD B 4.3 04:45:13 10° NNE 04:50:45 76° ESE 04:55:21 15° S
Cosmos 1802 Rocket 4.1 04:46:21 10° N 04:52:33 76° E 04:58:40 10° SSE
Cosmos 2061 Rocket 4.0 04:46:31 10° N 04:52:52 85° E 04:59:15 10° S
Tiangong 1 2.7 04:56:05 26° SE 04:56:05 26° SE 04:57:55 10° ESE
Cosmos 2084 4.5 04:57:06 27° NNW 04:57:06 27° NNW 05:00:15 10° NNE
Cosmos 1666 2.5 04:53:46 10° NNW 04:57:37 68° W 04:57:38 68° W
Lacrosse 5 rocket 3.0 04:56:50 24° NW 04:58:07 28° NNW 05:01:57 10° NE
Meteor 1-15 Rocket 4.1 04:53:25 10° NNW 04:59:01 87° W 05:04:39 10° S
Cosmos 724 4.4 04:53:49 10° NW 04:59:55 58° WSW 05:06:00 10° SSE
NOSS 3-4 (A) 3.6 04:57:23 37° WSW 04:59:57 63° NW 05:06:34 10° NE
NOSS 3-4 (C) 3.6 04:57:28 37° WSW 05:00:04 63° NW 05:06:41 10° NE
ADEOS II 3.1 04:55:23 10° NNE 05:00:28 46° E 05:05:31 10° S
COS B Rocket 4.0 05:03:38 25° N 05:03:38 25° N 05:04:57 10° N
ASTRO F (AKARI) 4.5 05:00:38 10° SSE 05:03:48 71° ENE 05:07:07 10° N
CZ-2C R/B 3.9 05:04:19 26° SSW 05:06:36 48° W 05:11:08 10° NNW
CZ-4B R/B 3.0 05:04:03 10° N 05:08:28 79° WNW 05:11:26 21° SSW
ATLAS 5 CENTAUR R/B 3.6 05:12:19 23° SW 05:12:19 23° SW 05:15:37 10° SSW
Cosmos 2344 4.1 05:07:27 27° W 05:11:48 52° NW 05:21:08 10° NE
CZ-4B R/B 3.1 05:06:48 10° NNE 05:12:14 79° WNW 05:17:28 11° SSW
Cosmos 292 Rocket 4.3 05:15:04 10° NW 05:19:29 35° WSW 05:23:52 10° SSW
Cosmos 2058 Rocket 3.1 05:17:20 10° NNW 05:21:35 50° W 05:25:47 10° S
Cosmos 1000 Rocket 4.4 05:15:35 10° SSW 05:21:55 79° W 05:28:17 10° N
Cosmos 2016 Rocket 3.9 05:15:59 10° N 05:22:21 80° W 05:28:37 10° S
ATLAS 2AS CENTAUR R/B 4.5 05:16:58 12° WNW 05:22:48 27° NNW 05:29:28 10° NE
MOS 1 Rocket 4.4 05:19:29 10° NNE 05:24:09 48° E 05:29:03 10° S
Aureole 2 Rocket 2.6 05:24:22 40° W 05:24:36 41° WSW 05:27:37 10° S
Okean 2 3.5 05:22:22 23° SW 05:24:41 53° WNW 05:28:46 10° N
Meteor 2-4 Rocket 3.9 05:22:23 14° SSW 05:27:20 54° WNW 05:33:10 10° N
Cosmos 2298 Rocket 4.0 05:23:05 15° SSW 05:27:31 73° WNW 05:32:52 10° NNE
Cosmos 2173 Rocket 4.0 05:21:38 10° NNW 05:27:32 54° W 05:33:29 10° SSW
Okean-O 2.8 05:23:18 10° NNE 05:27:46 74° ESE 05:32:11 10° S
CZ-2D R/B 3.5 05:24:22 10° NNW 05:28:00 19° WNW 05:28:51 19° WNW
SL-08 R/B 4.4 05:25:12 10° N 05:31:28 81° W 05:37:47 10° S
Cosmos 192 4.2 05:28:05 10° NNW 05:33:02 70° WSW 05:37:55 10° SSE
Cosmos 1459 Rocket 4.2 05:27:08 10° NNW 05:33:13 49° W 05:39:15 10° SSW
COBE Rocket 4.5 05:28:58 10° NNE 05:33:43 57° E 05:38:18 10° S
SL-16 R/B 2.7 05:28:48 10° NW 05:33:54 35° WSW 05:38:57 10° S
Cosmos 1025 Rocket 4.0 05:33:14 25° W 05:34:11 27° WNW 05:37:53 10° NNW
USA 116 4.1 05:29:30 10° S 05:34:28 70° WSW 05:38:55 10° NNW
USA 129 2.2 05:32:52 10° SSE 05:34:36 45° ENE 05:35:41 16° N
Cosmos 990 Rocket 4.3 05:29:30 10° SSW 05:34:44 71° ESE 05:39:59 10° NNE
COSMO-SKYMED 1 4.0 05:32:31 10° SE 05:36:35 41° ENE 05:40:42 10° N
Lacrosse 5 2.3 05:33:38 22° W 05:36:35 48° NNW 05:41:30 10° NE
Meteor 1-23 Rocket 4.5 05:31:54 11° SSW 05:37:08 48° WNW 05:42:42 10° N
Thor Agena Rocket 3.8 05:34:16 10° S 05:39:20 45° W 05:44:25 10° NNW
Cosmos 2150 Rocket 4.0 05:36:17 11° SSW 05:41:15 63° WNW 05:46:24 10° NNE
Cosmos 2123 Rocket 4.0 05:38:51 10° S 05:45:02 89° E 05:51:15 10° N
Resurs 1-4 Rocket 3.8 05:43:20 10° NNW 05:46:04 14° NW 05:47:27 13° WNW
Cosmos 1174 3.4 05:45:06 14° NW 05:47:29 43° WSW 05:50:36 10° SSE
Cosmos 2227 Rocket 3.3 05:45:21 17° W 05:48:30 28° NW 05:53:19 10° N
Meteor 2-15 4.4 05:43:42 10° SSW 05:49:41 66° WNW 05:55:45 10° N
Intercosmos 25 Rocket 3.7 05:48:08 10° N 05:51:36 73° E 05:56:34 10° SSE
Cosmos 1626 Rocket 3.5 05:48:05 10° SSW 05:52:27 73° W 05:56:48 10° N
Cosmos 1346 Rocket 4.0 05:50:49 18° WSW 05:52:34 24° WNW 05:55:52 10° NNW
Okean O Rocket 2.9 05:53:13 10° NNW 05:56:35 22° WNW 05:59:01 14° WSW
Cosmos 2297 Rocket 3.1 05:53:26 15° WSW 05:57:20 31° NW 06:02:21 10° NNE
RESURS DK-1 3.9 05:56:45 15° W 05:58:48 20° NW 06:01:56 10° N
Cosmos 2098 Rocket 3.7 05:57:44 10° NNW 06:01:18 34° W 06:05:41 10° SSW
Cosmos 1898 Rocket 4.1 06:01:13 10° SW 06:06:10 39° WNW 06:11:08 10° N
ADEOS Rocket 3.6 05:59:56 10° N 06:06:46 47° WNW 06:12:57 10° SW
Cosmos 1125 Rocket 4.1 06:07:28 10° S 06:12:34 61° ESE 06:17:43 10° NNE
Meteor 1-22 Rocket 4.2 06:08:48 10° NNW 06:14:18 86° W 06:20:00 10° S
CENTAUR R/B 3.5 06:07:27 10° NW 06:14:35 40° WSW 06:22:07 10° S
BREEZE M DEB (TANK) 3.8 06:11:47 10° W 06:15:33 74° N 06:29:42 10° E
Cosmos 1943 3.2 06:10:10 10° NNW 06:15:50 86° WSW 06:21:28 10° SSE
Cosmos 1602 Rocket 4.0 06:12:27 10° SSW 06:16:40 42° WNW 06:20:52 10° N
Cosmos 1937 Rocket 4.0 06:11:44 10° SW 06:16:43 43° WNW 06:21:46 10° NNE
PSLV R/B 4.5 06:14:20 10° N 06:18:04 28° WNW 06:21:45 10° SW
Cosmos 1766 3.5 06:16:35 10° N 06:20:37 80° E 06:24:36 10° SSE
Cosmos 1603 4.2 06:16:19 10° NW 06:21:33 37° WSW 06:26:43 10° S
NOSS 2-2 (D) 3.7 06:19:46 10° SW 06:23:58 70° NW 06:29:03 10° NE
Genesis I 3.2 06:20:27 10° SW 06:24:26 73° NW 06:28:27 10° NE
SKYMED 2 3.6 06:20:17 10° S 06:24:36 65° W 06:28:56 10° NNW
Meteor 1-31 Rocket 3.1 06:20:59 10° N 06:24:44 45° WNW 06:28:28 10° SW
NOAA 6 4.1 06:22:34 10° N 06:27:46 70° WNW 06:32:55 10° SSW
Cosmos 2233 Rocket 4.1 06:23:08 10° NNW 06:29:17 59° W 06:35:22 10° S
Cosmos 2263 Rocket 3.3 06:26:00 10° S 06:31:21 50° ESE 06:36:43 10° NE
